Location: Grossmotten
(48.5500°N, 15.3833°E)
Time: 09:56:15
(UTC+00:00)

Cosmos 158 Rocket - Pass Details

Date: 15 November 2019
Orbit: 699 x 793 km, 74.0° (Epoch: 06 December)

Event Time Altitude Azimuth Distance (km) Brightness Sun altitude
Exits shadow 04:17:54 23° 321° (NW) 1,514 5.1 -17.8°
Maximum altitude 04:20:49 53° 253° (WSW) 873 3.9 -17.3°
Drops below altitude 10° 04:25:33 10° 177° (S) 2,164 6.5 -16.5°
Sets 04:27:53 0° 173° (S) 3,073 7.3 -16.1°
